Zurück zum Katalog

ARIANE 1 DEB

AktivSSO
NORAD 17219·DEBRIS·🇫🇷 France

Gestartet Feb 22, 1986 von Guiana Space Centre

Loading…

Nächste Überflüge (nächste 24 Stunden)

TLE

AktuellSource: Space-Track

Epoche: Sep 13, 2026, 07:36 UTC

1 17219U 86019BR  26256.31692549  .00002065  00000-0  42009-3 0  9995
2 17219  98.4180 173.8850 0029632 177.6981 301.2132 14.61916243 87706

Verfolge ARIANE 1 DEB in Echtzeit mit AllMySat

Download on the App Store